This is the latest recevied weather packets stored in our database for station/object WD9EKA. If no packets are shown the sender has not sent any weather packets the latest 10 day(s).
| Time | Temp. | Humidity | Pressure | Rain* | Wind** | Luminosity | Snow |
|---|---|---|---|---|---|---|---|
| 1787610322 | 25° C | 71% | 1012.8 hPa | 0 mm | - | - | - |
| 1787610003 | 25° C | 72% | 1012.8 hPa | 0 mm | - | - | - |
| 1787609683 | 25° C | 67% | 1012.9 hPa | 0 mm | - | - | - |
| 1787609362 | 26.11° C | 66% | 1012.9 hPa | 0 mm | - | - | - |
| 1787609043 | 26.11° C | 60% | 1012.8 hPa | 0 mm | - | - | - |
| 1787608723 | 26.11° C | 61% | 1012.9 hPa | 0 mm | - | - | - |
| 1787608402 | 26.67° C | 61% | 1012.8 hPa | 0 mm | - | - | - |
| 1787608083 | 27.22° C | 56% | 1012.9 hPa | 0 mm | - | - | - |
| 1787607763 | 26.11° C | 53% | 1012.7 hPa | 0 mm | - | - | - |
| 1787607443 | 26.11° C | 57% | 1012.7 hPa | 0 mm | - | - | - |
| 1787607123 | 26.67° C | 54% | 1012.8 hPa | 0 mm | - | - | - |
| 1787606803 | 27.22° C | 52% | 1012.8 hPa | 0 mm | - | - | - |
| 1787606482 | 27.22° C | 53% | 1012.8 hPa | 0 mm | - | - | - |
| 1787606163 | 26.67° C | 53% | 1012.9 hPa | 0 mm | - | - | - |
| 1787605843 | 26.11° C | 58% | 1013 hPa | 0 mm | - | - | - |
| 1787605523 | 26.11° C | 60% | 1012.9 hPa | 0 mm | - | - | - |
| 1787605204 | 27.22° C | 58% | 1013.1 hPa | 0 mm | - | - | - |
| 1787604882 | 27.22° C | 52% | 1013 hPa | 0 mm | - | - | - |
| 1787604563 | 27.22° C | 52% | 1013.1 hPa | 0 mm | - | - | - |
| 1787604243 | 27.22° C | 53% | 1013.2 hPa | 0 mm | - | - | - |
| 1787603923 | 26.67° C | 53% | 1013.1 hPa | 0 mm | - | - | - |
| 1787603603 | 26.11° C | 53% | 1013.2 hPa | 0 mm | - | - | - |
| 1787603283 | 26.11° C | 55% | 1013 hPa | 0 mm | - | - | - |
| 1787602962 | 25.56° C | 56% | 1013.1 hPa | 0 mm | - | - | - |
| 1787602643 | 26.11° C | 55% | 1013.2 hPa | 0 mm | - | - | - |
* Rain latest hour (hover to see other rain measurements)
** Current wind speed in m/s (hover to see current wind gust speed)